Location: Central Falls
(41.8900°N, 71.3929°W)
Time: 04:22:49
(UTC+00:00)

Tiros 1 - Pass Details

Date: 07 December 2023
Orbit: 625 x 658 km, 48.4° (Epoch: 01 March)

Event Time Altitude Azimuth Distance (km) Brightness Sun altitude
Rises 08:31:59 0° 241° (WSW) 2,965 - -37.8°
Reaches altitude 10° 08:34:19 10° 241° (WSW) 2,060 - -37.4°
Maximum altitude 08:39:05 89° 333° (NNW) 663 - -36.5°
Exits shadow 08:42:33 19° 62° (ENE) 1,565 9.6 -35.8°
Drops below altitude 10° 08:43:54 10° 62° (ENE) 2,075 10.4 -35.6°
Sets 08:46:15 0° 63° (ENE) 2,989 11.4 -35.1°
